Date String (YYYY-MM-DD hh:mm:ss) UTC,Instrument flags,Ambient pressure (hPa),Sample flow (lpm),Bypass flow (lpm),Sample temperature (°C),Ambient temperature (°C),ASC tube jacket temperature (°C),LED temperature (°C),Box temperature (°C),Sample RH (%),Span deviation,Mass concentration (μg/m³),Mass concentration (μg/m³),Mass concentration (μg/m³)
DateTimeUTC,F1_M11,P_M11,Q1_M11,Q2_M11,T1_M11,T2_M11,T3_M11,T4_M11,T5_M11,U1_M11,ZSPAN_M11,X0_M11,X2_M11,X1_M11
2021-11-30 10:00:00,,0828.9,5.01,0.00,29.0,27.9,00.0,38.1,30.7,06.6,0000.0,0002.12,0000.66,0000.41
2021-11-30 10:01:00,,0829.3,5.00,0.00,29.0,27.8,00.0,38.1,30.6,06.6,0000.0,0002.30,0000.67,0000.41
2021-11-30 10:02:00,,0828.9,4.99,0.00,29.0,27.8,00.0,38.1,30.6,06.6,0000.0,0002.50,0000.68,0000.42
2021-11-30 10:03:00,,0828.8,5.01,0.00,29.0,27.9,00.0,38.1,30.6,06.6,0000.0,0002.36,0000.66,0000.41
2021-11-30 10:04:00,,0829.3,5.00,0.00,29.0,27.9,00.0,38.1,30.6,06.5,0000.0,0002.36,0000.67,0000.40
2021-11-30 10:05:00,,0829.3,4.99,0.00,29.0,27.8,00.0,38.1,30.6,06.6,0000.0,0002.52,0000.70,0000.42
2021-11-30 10:06:00,,0829.3,5.01,0.00,29.0,27.8,00.0,38.1,30.6,06.6,0000.0,0002.56,0000.70,0000.43
2021-11-30 10:07:00,,0829.2,5.00,0.00,29.0,27.9,00.0,38.1,30.6,06.6,0000.0,0002.46,0000.68,0000.43
2021-11-30 10:08:00,,0829.0,4.99,0.00,28.9,27.9,00.0,38.1,30.5,06.7,0000.0,0002.68,0000.71,0000.44
2021-11-30 10:09:00,,0829.4,5.00,0.00,28.9,27.8,00.0,38.1,30.5,06.6,0000.0,0002.29,0000.73,0000.44
2021-11-30 10:10:00,,0829.2,5.00,0.00,28.9,27.8,00.0,38.0,30.5,06.6,0000.0,0002.12,0000.74,0000.43
2021-11-30 10:11:00,,0829.3,5.01,0.00,28.9,27.8,00.0,38.0,30.5,06.6,0000.0,0002.08,0000.72,0000.43
2021-11-30 10:12:00,,0829.3,4.98,0.00,28.9,27.8,00.0,38.0,30.6,06.5,0000.0,0002.01,0000.73,0000.44
2021-11-30 10:13:00,,0829.3,5.00,0.00,28.9,27.8,00.0,38.0,30.6,06.5,0000.0,0001.70,0000.75,0000.45
2021-11-30 10:14:00,,0828.9,5.00,0.00,28.9,27.8,00.0,38.0,30.5,06.5,0000.0,0002.84,0000.77,0000.46
2021-11-30 10:15:00,,0828.9,5.00,0.00,28.9,27.8,00.0,38.0,30.5,06.3,0000.0,0002.85,0000.77,0000.47
2021-11-30 10:16:00,,0828.9,5.00,0.00,28.9,27.8,00.0,38.0,30.5,06.4,0000.0,0002.87,0000.77,0000.47
2021-11-30 10:17:00,,0829.0,5.02,0.00,28.9,27.8,00.0,38.0,30.5,06.4,0000.0,0002.80,0000.74,0000.46
2021-11-30 10:18:00,,0829.0,4.99,0.00,28.9,27.7,00.0,38.0,30.5,06.4,0000.0,0002.76,0000.73,0000.46
2021-11-30 10:19:00,,0829.1,5.01,0.00,28.9,27.8,00.0,38.0,30.5,06.3,0000.0,0002.59,0000.70,0000.46
2021-11-30 10:20:00,,0829.1,5.00,0.00,28.9,27.8,00.0,38.0,30.5,06.2,0000.0,0002.56,0000.69,0000.47
2021-11-30 10:21:00,,0829.1,4.99,0.00,28.9,27.8,00.0,38.0,30.5,06.4,0000.0,0002.51,0000.71,0000.49
2021-11-30 10:22:00,,0829.2,5.00,0.00,28.9,27.8,00.0,38.0,30.6,07.4,0000.0,0002.53,0000.72,0000.50
2021-11-30 10:23:00,,0829.3,4.99,0.00,28.9,27.8,00.0,38.0,30.6,07.6,0000.0,0003.58,0000.69,0000.49
2021-11-30 10:24:00,,0829.2,5.00,0.00,28.9,27.8,00.0,38.0,30.6,08.5,0000.0,0003.54,0000.66,0000.48
2021-11-30 10:25:00,,0829.2,4.99,0.00,28.9,27.9,00.0,38.0,30.6,08.9,0000.0,0002.45,0000.68,0000.47
2021-11-30 10:26:00,,0829.3,5.01,0.00,28.9,27.9,00.0,38.0,30.6,08.7,0000.0,0002.48,0000.69,0000.46
2021-11-30 10:27:00,,0829.2,4.99,0.00,28.9,27.9,00.0,38.0,30.7,08.6,0000.0,0002.78,0000.72,0000.46
2021-11-30 10:28:00,,0829.2,5.00,0.00,28.9,27.9,00.0,38.0,30.6,08.4,0000.0,0003.59,0000.77,0000.47
2021-11-30 10:29:00,,0829.2,5.00,0.00,28.9,27.9,00.0,37.9,30.6,08.5,0000.0,0003.79,0000.84,0000.48
2021-11-30 10:30:00,,0829.3,5.00,0.00,28.9,27.9,00.0,37.9,30.6,08.5,0000.0,0003.94,0000.91,0000.48
2021-11-30 10:31:00,,0829.3,5.00,0.00,28.9,27.9,00.0,37.9,30.6,08.6,0000.0,0003.93,0000.92,0000.48
2021-11-30 10:32:00,,0829.3,5.00,0.00,28.9,27.9,00.0,37.9,30.6,08.7,0000.0,0003.99,0000.94,0000.48
2021-11-30 10:33:00,,0829.2,5.01,0.00,28.9,27.9,00.0,37.9,30.6,08.7,0000.0,0004.13,0000.97,0000.48
2021-11-30 10:34:00,,0829.2,5.00,0.00,28.9,27.9,00.0,37.9,30.6,08.6,0000.0,0003.25,0001.01,0000.49
2021-11-30 10:35:00,,0829.2,5.01,0.00,28.9,27.9,00.0,37.9,30.7,08.7,0000.0,0004.80,0001.06,0000.49
2021-11-30 10:36:00,,0829.2,4.99,0.00,28.9,27.9,00.0,37.9,30.7,08.6,0000.0,0006.22,0001.07,0000.50
2021-11-30 10:37:00,,0829.3,5.02,0.00,28.9,28.0,00.0,37.9,30.6,08.7,0000.0,0006.27,0001.05,0000.51
2021-11-30 10:38:00,,0829.2,4.99,0.00,28.9,27.9,00.0,37.9,30.6,08.9,0000.0,0006.11,0001.09,0000.52
2021-11-30 10:39:00,,0829.2,4.99,0.00,28.9,28.0,00.0,37.9,30.7,09.0,0000.0,0005.91,0001.16,0000.54
2021-11-30 10:40:00,,0829.3,4.99,0.00,28.9,28.0,00.0,37.9,30.7,09.0,0000.0,0006.60,0001.16,0000.54
2021-11-30 10:41:00,,0829.4,5.01,0.00,28.9,28.0,00.0,37.9,30.7,09.0,0000.0,0007.10,0001.15,0000.54
2021-11-30 10:42:00,,0829.4,5.00,0.00,28.9,28.0,00.0,37.9,30.7,08.6,0000.0,0007.26,0001.23,0000.55
2021-11-30 10:43:00,,0829.5,4.98,0.00,28.9,28.0,00.0,37.9,30.7,08.9,0000.0,0007.70,0001.27,0000.56
2021-11-30 10:44:00,,0829.5,5.01,0.00,28.9,28.0,00.0,37.9,30.7,09.0,0000.0,0007.69,0001.27,0000.57
2021-11-30 10:45:00,,0829.6,4.99,0.00,28.9,28.0,00.0,37.9,30.7,08.8,0000.0,0007.74,0001.31,0000.58
2021-11-30 10:46:00,,0829.5,5.00,0.00,28.9,28.0,00.0,37.9,30.7,08.2,0000.0,0007.45,0001.42,0000.58
2021-11-30 10:47:00,,0829.5,4.99,0.00,28.9,28.0,00.0,37.9,30.7,07.0,0000.0,0006.87,0001.39,0000.59
2021-11-30 10:48:00,,0829.5,5.01,0.00,28.9,28.0,00.0,37.9,30.7,06.8,0000.0,0006.85,0001.43,0000.60
2021-11-30 10:49:00,,0829.5,5.01,0.00,28.9,28.0,00.0,37.9,30.7,06.7,0000.0,0006.67,0001.38,0000.60
2021-11-30 10:50:00,,0829.5,5.00,0.00,28.9,28.0,00.0,37.9,30.7,07.2,0000.0,0006.45,0001.26,0000.57
2021-11-30 10:51:00,,0829.6,5.01,0.00,28.9,28.0,00.0,37.9,30.6,08.8,0000.0,0006.69,0001.23,0000.57
2021-11-30 10:52:00,,0829.6,4.98,0.00,28.9,28.0,00.0,37.9,30.6,09.0,0000.0,0006.63,0001.27,0000.58
2021-11-30 10:53:00,,0829.7,5.00,0.00,28.9,28.0,00.0,37.9,30.7,08.9,0000.0,0007.04,0001.25,0000.58
2021-11-30 10:54:00,,0829.6,5.00,0.00,28.9,27.9,00.0,37.9,30.6,09.2,0000.0,0007.29,0001.26,0000.59
2021-11-30 10:55:00,,0829.7,4.99,0.00,28.9,27.9,00.0,37.9,30.6,09.3,0000.0,0007.31,0001.28,0000.59
2021-11-30 10:56:00,,0829.6,4.99,0.00,28.9,27.9,00.0,37.9,30.6,09.5,0000.0,0007.60,0001.42,0000.62
2021-11-30 10:57:00,,0829.6,5.00,0.00,28.8,27.9,00.0,37.9,30.6,09.5,0000.0,0007.12,0001.37,0000.64
2021-11-30 10:58:00,,0829.7,4.99,0.00,28.8,27.9,00.0,37.9,30.5,09.5,0000.0,0006.15,0001.37,0000.66
2021-11-30 10:59:00,,0829.8,5.00,0.00,28.8,27.9,00.0,37.9,30.5,09.4,0000.0,0006.55,0001.43,0000.67
